Showing default

GEISAT PRECURSOR, 56934

Orbit data source: Space-Track

GEISAT PRECURSOR, 56934 is a payload satellite owned by Satlantis (ES) in SSO that was launched on Mon, 12 Jun 2023 UTC via an FALCON 9 launch vehicle from the Air Force Western Test Range (AFWTR). Payload-class satellites include a variety of spacecraft equipped with specific instruments for various scientific and technological missions. These include communications satellites like Starlink; space stations such as the ISS; scientific satellites like the Hubble; Earth observation satellites from companies like Planet Labs, Umbra, and HawkEye 360; GPS; miniature CubeSats for education and research; and military/defense satellites.

Loading next visibility...
Identifier
56934, 2023-084C
Orbit
SSO
Country
Flag of ESES / SPN
Related business
Manufacturer
NanoAvionics
Mission
Operational Commercial Imaging
Bus & Motor
CUBESAT 16U M16P, Unknown motor
Mass
~20 kg wet, ~20 kg dry
Launch date (UTC)
2023-06-12 (3 years ago)
Launch vehicle
FALCON 9
Launch site
Air Force Western Test Range (AFWTR)
Object type
Payload
Rocket body
Debris
Shape & HBR
Box, 0.2 m
Radar Cross Section
0.100 m², Medium (>0.1 m² and < 1m²)

Expand to show TLE details & history
Last TLE update: 9 hours ago

TLE from 9 hours ago
0 GEISAT PRECURSOR
1 56934U 23084C   26119.56598672  .00008297  00000-0  25505-3 0  9997
2 56934  97.6148 258.9657 0006926 147.6354 212.5314 15.33939611160072
Epoch: 2026-04-29T13:35Z
TLE epoch observation values (Epoch: 2026-04-29T13:35:01.252Z)
Latitude
-0.00005°
Longitude
-162.31462°
Altitude
471.172 km
Speed
7.628 km/s
True Right ascension
17h 15m 51s
True Declination
0° 00' 00"
Sunlit
Object was in full shadow at epoch
Visualization orbit readout
Latitude
Unknown
Longitude
Unknown
Altitude
Unknown
Speed
Unknown
Apparent Right ascension
Unknown
Apparent Declination
Unknown
Sunlit
N/A
Visualization observer readout
Local Sidereal Time
05:44:45
Azimuth
Unknown
Elevation
Unknown
Doppler factor
Unknown
Orbital elements
Apogee altitude
465.765 km
Perigee altitude
456.292 km
Semi-major axis
6,839.165 km
Eccentricity
0.00069
Inclination
97.6148°
RAAN
258.9657°
Arg. of periapsis
147.6354°
True anomaly
212.48875°
Mean anomaly
212.5314°
Eccentric anomaly
212.51007°
Mean motion
3.83741 °/min
Orbital period
93.81 mins
BSTAR
0.00025505
Loading maneuver chart data...
Computing Atmospheric mass density...
Loading historical data...
Loading historical data...
Loading historical data...
Loading historical data...
Loading historical data...
Loading historical data...
Loading historical data...

Documentation

Showing up to 5 results
|